Vorticity
9 11 8 9 7 10 10 9 10 9 9 10 8 7 8 8 8 8 8 14 12 8 16 5 10 -6 8
4 4 13 5 8 6 8 4 8 4 6 3 5 6 7 7 7 7 8 8 10 6 16 4 -1 8 9
3 7 9 -2 4 6 13 6 8 15 7 19 3 9 7 -1 5 11 12 5 8 7 7 10 5 -6 19
7 10 -5 16 2 10 6 3 16 -2 3 4 3 3 19 11 7 8 7 7 13 12 11 -2 18 3 12
3 4 5 9 9 3 13 12 -6 9 4 4 5 1 13 9 1 22 5 3 -3 12 14 22 9 13 8
1 2 5 7 -2 2 35 -5 6 18 3 18 3 14 4 5 0 3 10 -4 12 9 17 18 18 8 6
3 11 14 3 24 11 -3 11 16 -7 14 -8 12 1 6 28 12 22 -2 -1 22 3 23 14 3 9 13
11 -4 1 8 5 8 7 1 -13 14 11 11 11 14 13 3 20 -2 8 2 10 17 16 4 11 10 23
6 12 4 10 -2 19 -3 4 8 1 14 7 -9 8 22 2 12 -7 19 18 20 15 9 11 13 6 10
6 -22 -2 13 10 2 7 3 17 4 13 -1 14 19 -8 1 9 11 12 13 6 20 16 17 5 31 5
-7 16 8 17 3 6 10 13 7 6 20 22 18 24 -10 28 15 12 14 15 16 11 9 17 0 18 19
7 9 10 13 6 22 -7 10 12 6 20 2 10 26 4 11 1 24 18 -7 -4 12 7 9 8 10 11
4 8 5 8 22 0 16 19 9 14 3 1 22 13 16 -2 21 24 -1 6 14 0 13 7 5 3 3
8 11 18 18 5 4 8 27 12 3 18 8 17 19 15 13 12 21 1 19 -5 -4 10 8 21 10 5
24 14 5 34 28 26 11 6 -18 18 -13 38 7 7 39 17 17 15 28 13 6 0 10 13 6 8 17
24 10 13 -2 31 1 7 8 25 17 28 10 7 24 2 12 10 9 -1 2 7 18 9 6 11 14 10
1 2 22 25 -6 18 24 16 21 6 0 22 -1 -2 5 3 5 3 4 3 12 9 12 12 13 7 7
Height
3123 3124 3126 3129 3131 3133 3134 3136 3137 3138 3139 3140 3141 3140 3140 3141 3141 3141 3141 3141 3141 3140 3138 3137 3134 3133 3131
3115 3118 3120 3122 3123 3125 3127 3129 3130 3132 3132 3133 3133 3133 3133 3133 3133 3133 3133 3133 3132 3131 3131 3131 3128 3126 3124
3108 3109 3112 3115 3117 3119 3121 3122 3123 3124 3125 3124 3125 3125 3125 3125 3125 3125 3125 3125 3124 3122 3123 3122 3121 3119 3116
3098 3101 3104 3107 3110 3112 3114 3116 3117 3117 3117 3117 3117 3118 3117 3117 3117 3116 3116 3115 3114 3114 3114 3113 3112 3112 3110
3090 3092 3095 3099 3102 3105 3106 3107 3108 3108 3108 3109 3109 3109 3108 3108 3108 3107 3107 3106 3105 3104 3103 3102 3102 3101 3101
3083 3084 3089 3091 3094 3095 3096 3097 3096 3101 3099 3101 3100 3100 3101 3099 3099 3098 3097 3097 3096 3095 3093 3092 3092 3092 3091
3072 3074 3080 3084 3085 3085 3086 3086 3088 3090 3090 3089 3090 3091 3091 3089 3088 3087 3087 3087 3086 3085 3083 3082 3083 3083 3082
3062 3068 3071 3073 3073 3074 3076 3076 3077 3079 3079 3078 3081 3081 3081 3079 3078 3078 3078 3077 3075 3074 3073 3073 3073 3073 3073
3053 3056 3059 3062 3064 3064 3065 3067 3066 3068 3069 3068 3070 3070 3070 3069 3068 3068 3067 3066 3064 3063 3063 3064 3064 3064 3063
3042 3045 3048 3052 3053 3054 3056 3056 3056 3056 3060 3058 3060 3060 3058 3059 3060 3059 3057 3056 3055 3054 3053 3054 3055 3054 3054
3030 3034 3037 3040 3042 3043 3045 3046 3047 3045 3047 3048 3049 3048 3048 3049 3049 3049 3048 3048 3048 3047 3046 3046 3046 3046 3045
3020 3022 3026 3028 3032 3032 3033 3035 3036 3037 3037 3037 3038 3038 3039 3039 3039 3040 3040 3040 3040 3040 3039 3038 3038 3038 3037
3009 3012 3015 3018 3019 3021 3022 3023 3025 3027 3027 3027 3028 3028 3029 3030 3030 3031 3032 3031 3031 3031 3031 3031 3030 3030 3029
2998 3000 3002 3005 3008 3010 3011 3013 3014 3015 3017 3018 3019 3019 3020 3021 3021 3023 3023 3023 3023 3022 3022 3020 3019 3019 3018
2985 2988 2992 2994 2996 2998 3001 3002 3004 3007 3007 3009 3010 3010 3010 3011 3013 3014 3014 3014 3014 3013 3012 3012 3011 3009 3007
2975 2978 2982 2985 2987 2989 2991 2993 2995 2997 2998 3000 3001 3001 3002 3003 3004 3005 3005 3005 3004 3003 3002 3002 3001 2998 2997
2965 2968 2971 2974 2977 2979 2981 2983 2985 2987 2989 2991 2992 2993 2994 2995 2996 2996 2996 2995 2994 2994 2992 2991 2991 2989 2987